Time,TemperatureF,DewpointF,PressureIn,WindDirection,WindDirectionDegrees,WindSpeedMPH,WindSpeedGustMPH,Humidity,HourlyPrecipIn,Conditions,Clouds,dailyrainin,SoftwareType,DateUTC
2013-01-04 00:03:00,27.4,23.2,30.18,West,277,4.0,4.0,84,0.00,,,0.00,Wunderground v.1.15,2013-01-04 05:03:00,
2013-01-04 00:04:00,27.4,23.2,30.18,West,280,4.0,7.0,84,0.00,,,0.00,Wunderground v.1.15,2013-01-04 05:04:00,
2013-01-04 00:05:00,27.4,22.9,30.18,West,280,4.0,7.0,83,0.00,,,0.00,Wunderground v.1.15,2013-01-04 05:05:00,
2013-01-04 00:06:00,27.4,23.2,30.18,West,280,4.0,7.0,84,0.00,,,0.00,Wunderground v.1.15,2013-01-04 05:06:00,
2013-01-04 00:12:00,27.4,23.2,30.18,West,279,4.0,6.0,84,0.00,,,0.00,Wunderground v.1.15,2013-01-04 05:12:00,
2013-01-04 00:18:00,27.4,23.2,30.18,West,281,4.0,6.0,84,0.00,,,0.00,Wunderground v.1.15,2013-01-04 05:18:00,
2013-01-04 00:24:00,27.4,23.2,30.18,West,281,5.0,9.0,84,0.00,,,0.00,Wunderground v.1.15,2013-01-04 05:24:00,
2013-01-04 00:30:00,27.3,23.4,30.18,West,276,4.0,7.0,85,0.00,,,0.00,Wunderground v.1.15,2013-01-04 05:30:00,
2013-01-04 00:35:00,27.1,22.9,30.18,WNW,291,3.0,7.0,84,0.00,,,0.00,Wunderground v.1.15,2013-01-04 05:35:00,
2013-01-04 00:41:00,27.0,23.1,30.18,WNW,283,3.0,5.0,85,0.00,,,0.00,Wunderground v.1.15,2013-01-04 05:41:00,
2013-01-04 00:46:00,26.9,23.3,30.17,West,275,4.0,8.0,86,0.00,,,0.00,Wunderground v.1.15,2013-01-04 05:46:00,
2013-01-04 00:52:00,26.9,23.3,30.17,WNW,284,4.0,4.0,86,0.00,,,0.00,Wunderground v.1.15,2013-01-04 05:52:00,
2013-01-04 00:58:00,26.9,23.3,30.17,WNW,286,4.0,5.0,86,0.00,,,0.00,Wunderground v.1.15,2013-01-04 05:58:00,
2013-01-04 01:03:00,27.0,23.4,30.17,WNW,288,4.0,7.0,86,0.00,,,0.00,Wunderground v.1.15,2013-01-04 06:03:00,
2013-01-04 01:09:00,27.0,23.4,30.17,West,275,4.0,7.0,86,0.00,,,0.00,Wunderground v.1.15,2013-01-04 06:09:00,
2013-01-04 01:14:00,27.1,23.5,30.16,WNW,285,5.0,9.0,86,0.00,,,0.00,Wunderground v.1.15,2013-01-04 06:14:00,
2013-01-04 01:20:00,27.2,23.6,30.16,West,264,6.0,7.0,86,0.00,,,0.00,Wunderground v.1.15,2013-01-04 06:20:00,
2013-01-04 01:25:00,27.3,23.7,30.16,West,278,6.0,8.0,86,0.00,,,0.00,Wunderground v.1.15,2013-01-04 06:25:00,
2013-01-04 01:31:00,27.3,23.4,30.16,West,272,5.0,7.0,85,0.00,,,0.00,Wunderground v.1.15,2013-01-04 06:31:00,
2013-01-04 01:36:00,27.4,23.5,30.15,West,275,6.0,9.0,85,0.00,,,0.00,Wunderground v.1.15,2013-01-04 06:36:00,
2013-01-04 01:41:00,27.4,23.5,30.15,WNW,283,6.0,10.0,85,0.00,,,0.00,Wunderground v.1.15,2013-01-04 06:41:00,
2013-01-04 01:46:00,27.4,23.5,30.15,West,272,5.0,10.0,85,0.00,,,0.00,Wunderground v.1.15,2013-01-04 06:46:00,
2013-01-04 01:53:00,27.5,23.3,30.15,WNW,286,5.0,6.0,84,0.00,,,0.00,Wunderground v.1.15,2013-01-04 06:53:00,
2013-01-04 01:58:00,27.6,23.4,30.15,WNW,299,5.0,8.0,84,0.00,,,0.00,Wunderground v.1.15,2013-01-04 06:58:00,
2013-01-04 02:03:00,27.6,23.1,30.15,West,272,6.0,11.0,83,0.00,,,0.00,Wunderground v.1.15,2013-01-04 07:03:00,
2013-01-04 02:09:00,27.7,23.2,30.15,West,280,6.0,8.0,83,0.00,,,0.00,Wunderground v.1.15,2013-01-04 07:09:00,
2013-01-04 02:22:00,27.8,23.3,30.15,West,278,6.0,6.0,83,0.00,,,0.00,Wunderground v.1.15,2013-01-04 07:22:00,
2013-01-04 02:28:00,27.9,23.4,30.15,WNW,283,6.0,7.0,83,0.00,,,0.00,Wunderground v.1.15,2013-01-04 07:28:00,
2013-01-04 02:33:00,27.9,23.4,30.15,WNW,284,5.0,5.0,83,0.00,,,0.00,Wunderground v.1.15,2013-01-04 07:33:00,
2013-01-04 02:39:00,27.9,23.4,30.14,West,278,5.0,5.0,83,0.00,,,0.00,Wunderground v.1.15,2013-01-04 07:39:00,
2013-01-04 02:44:00,27.9,23.7,30.15,West,275,5.0,5.0,84,0.00,,,0.00,Wunderground v.1.15,2013-01-04 07:44:00,
2013-01-04 02:49:00,28.0,23.5,30.14,West,265,6.0,11.0,83,0.00,,,0.00,Wunderground v.1.15,2013-01-04 07:49:00,
2013-01-04 02:54:00,28.1,23.6,30.15,West,279,7.0,10.0,83,0.00,,,0.00,Wunderground v.1.15,2013-01-04 07:54:00,
2013-01-04 03:00:00,28.1,23.3,30.15,WNW,296,7.0,7.0,82,0.00,,,0.00,Wunderground v.1.15,2013-01-04 08:00:00,
2013-01-04 03:05:00,28.2,22.8,30.15,WNW,300,8.0,11.0,80,0.00,,,0.00,Wunderground v.1.15,2013-01-04 08:05:00,
2013-01-04 03:11:00,28.3,22.6,30.14,West,278,9.0,9.0,79,0.00,,,0.00,Wunderground v.1.15,2013-01-04 08:11:00,
2013-01-04 03:16:00,28.4,22.4,30.14,West,267,9.0,10.0,78,0.00,,,0.00,Wunderground v.1.15,2013-01-04 08:16:00,
2013-01-04 03:22:00,28.3,22.6,30.14,West,276,8.0,10.0,79,0.00,,,0.00,Wunderground v.1.15,2013-01-04 08:22:00,
2013-01-04 03:27:00,28.3,22.3,30.14,WNW,288,7.0,10.0,78,0.00,,,0.00,Wunderground v.1.15,2013-01-04 08:27:00,
2013-01-04 03:32:00,28.3,22.3,30.14,WNW,298,9.0,17.0,78,0.00,,,0.00,Wunderground v.1.15,2013-01-04 08:32:00,
2013-01-04 03:37:00,28.3,22.3,30.13,WNW,283,8.0,17.0,78,0.00,,,0.00,Wunderground v.1.15,2013-01-04 08:37:00,
2013-01-04 03:43:00,28.3,22.6,30.13,WNW,295,6.0,11.0,79,0.00,,,0.00,Wunderground v.1.15,2013-01-04 08:43:00,
2013-01-04 03:49:00,28.2,22.5,30.13,NW,306,7.0,12.0,79,0.00,,,0.00,Wunderground v.1.15,2013-01-04 08:49:00,
2013-01-04 03:54:00,28.2,22.5,30.13,West,276,7.0,15.0,79,0.00,,,0.00,Wunderground v.1.15,2013-01-04 08:54:00,
2013-01-04 04:00:00,28.1,22.1,30.13,West,265,8.0,12.0,78,0.00,,,0.00,Wunderground v.1.15,2013-01-04 09:00:00,
2013-01-04 04:06:00,28.2,22.2,30.13,West,275,8.0,12.0,78,0.00,,,0.00,Wunderground v.1.15,2013-01-04 09:06:00,
2013-01-04 04:11:00,28.2,22.2,30.12,WNW,287,10.0,15.0,78,0.00,,,0.00,Wunderground v.1.15,2013-01-04 09:11:00,
2013-01-04 04:16:00,28.2,22.2,30.13,WNW,290,10.0,15.0,78,0.00,,,0.00,Wunderground v.1.15,2013-01-04 09:16:00,
2013-01-04 04:22:00,28.1,22.1,30.12,West,280,8.0,9.0,78,0.00,,,0.00,Wunderground v.1.15,2013-01-04 09:22:00,
2013-01-04 04:28:00,28.1,22.4,30.12,West,269,7.0,15.0,79,0.00,,,0.00,Wunderground v.1.15,2013-01-04 09:28:00,
2013-01-04 04:33:00,28.0,22.3,30.12,WNW,284,8.0,15.0,79,0.00,,,0.00,Wunderground v.1.15,2013-01-04 09:33:00,
2013-01-04 04:39:00,28.0,22.0,30.12,West,268,9.0,16.0,78,0.00,,,0.00,Wunderground v.1.15,2013-01-04 09:39:00,
2013-01-04 04:44:00,28.0,22.0,30.12,WNW,282,9.0,11.0,78,0.00,,,0.00,Wunderground v.1.15,2013-01-04 09:44:00,
2013-01-04 04:50:00,27.9,22.2,30.12,WNW,283,8.0,11.0,79,0.00,,,0.00,Wunderground v.1.15,2013-01-04 09:50:00,
2013-01-04 04:55:00,27.8,22.1,30.12,West,274,7.0,11.0,79,0.00,,,0.00,Wunderground v.1.15,2013-01-04 09:55:00,
2013-01-04 05:01:00,27.8,22.1,30.12,WSW,254,8.0,10.0,79,0.00,,,0.00,Wunderground v.1.15,2013-01-04 10:01:00,
2013-01-04 05:06:00,27.7,22.0,30.11,West,275,8.0,12.0,79,0.00,,,0.00,Wunderground v.1.15,2013-01-04 10:06:00,
2013-01-04 05:12:00,27.6,21.9,30.11,West,271,8.0,8.0,79,0.00,,,0.00,Wunderground v.1.15,2013-01-04 10:12:00,
2013-01-04 05:17:00,27.6,21.9,30.11,WNW,294,7.0,8.0,79,0.00,,,0.00,Wunderground v.1.15,2013-01-04 10:17:00,
2013-01-04 05:22:00,27.6,21.9,30.11,West,277,7.0,12.0,79,0.00,,,0.00,Wunderground v.1.15,2013-01-04 10:22:00,
2013-01-04 05:28:00,27.6,21.6,30.11,West,279,8.0,14.0,78,0.00,,,0.00,Wunderground v.1.15,2013-01-04 10:28:00,
2013-01-04 05:33:00,27.5,21.5,30.11,West,280,8.0,13.0,78,0.00,,,0.00,Wunderground v.1.15,2013-01-04 10:33:00,
2013-01-04 05:39:00,27.4,21.7,30.11,West,264,8.0,13.0,79,0.00,,,0.00,Wunderground v.1.15,2013-01-04 10:39:00,
2013-01-04 05:45:00,27.2,21.5,30.11,West,275,7.0,8.0,79,0.00,,,0.00,Wunderground v.1.15,2013-01-04 10:45:00,
2013-01-04 05:50:00,27.1,21.5,30.11,West,273,7.0,7.0,79,0.00,,,0.00,Wunderground v.1.15,2013-01-04 10:50:00,
2013-01-04 05:55:00,27.1,21.5,30.11,West,275,8.0,11.0,79,0.00,,,0.00,Wunderground v.1.15,2013-01-04 10:55:00,
2013-01-04 06:01:00,27.0,21.4,30.10,West,279,6.0,7.0,79,0.00,,,0.00,Wunderground v.1.15,2013-01-04 11:01:00,
2013-01-04 06:06:00,26.9,21.6,30.11,WSW,244,6.0,7.0,80,0.00,,,0.00,Wunderground v.1.15,2013-01-04 11:06:00,
2013-01-04 06:12:00,27.0,21.4,30.10,West,275,8.0,12.0,79,0.00,,,0.00,Wunderground v.1.15,2013-01-04 11:12:00,
2013-01-04 06:17:00,26.9,21.3,30.10,WSW,255,8.0,12.0,79,0.00,,,0.00,Wunderground v.1.15,2013-01-04 11:17:00,
2013-01-04 06:23:00,26.9,21.3,30.11,WNW,283,7.0,11.0,79,0.00,,,0.00,Wunderground v.1.15,2013-01-04 11:23:00,
2013-01-04 06:29:00,26.8,21.2,30.11,West,280,6.0,11.0,79,0.00,,,0.00,Wunderground v.1.15,2013-01-04 11:29:00,
2013-01-04 06:34:00,26.7,21.4,30.11,WNW,298,6.0,12.0,80,0.00,,,0.00,Wunderground v.1.15,2013-01-04 11:34:00,
2013-01-04 06:40:00,26.6,21.0,30.11,WNW,284,8.0,10.0,79,0.00,,,0.00,Wunderground v.1.15,2013-01-04 11:40:00,
2013-01-04 06:45:00,26.6,21.3,30.11,WNW,284,9.0,15.0,80,0.00,,,0.00,Wunderground v.1.15,2013-01-04 11:45:00,
2013-01-04 06:51:00,26.6,21.3,30.11,WNW,283,8.0,8.0,80,0.00,,,0.00,Wunderground v.1.15,2013-01-04 11:51:00,
2013-01-04 06:56:00,26.5,21.2,30.12,West,277,6.0,9.0,80,0.00,,,0.00,Wunderground v.1.15,2013-01-04 11:56:00,
2013-01-04 07:02:00,26.5,21.2,30.12,West,277,6.0,10.0,80,0.00,,,0.00,Wunderground v.1.15,2013-01-04 12:02:00,
2013-01-04 07:07:00,26.6,21.3,30.12,West,267,8.0,12.0,80,0.00,,,0.00,Wunderground v.1.15,2013-01-04 12:07:00,
2013-01-04 07:13:00,26.5,21.2,30.11,West,271,7.0,11.0,80,0.00,,,0.00,Wunderground v.1.15,2013-01-04 12:13:00,
2013-01-04 07:19:00,26.4,21.1,30.11,West,268,6.0,12.0,80,0.00,,,0.00,Wunderground v.1.15,2013-01-04 12:19:00,
2013-01-04 07:24:00,26.3,21.0,30.10,West,280,7.0,13.0,80,0.00,,,0.00,Wunderground v.1.15,2013-01-04 12:24:00,
2013-01-04 07:30:00,26.1,20.8,30.10,West,279,7.0,9.0,80,0.00,,,0.00,Wunderground v.1.15,2013-01-04 12:30:00,
2013-01-04 07:35:00,26.0,21.0,30.10,West,280,6.0,9.0,81,0.00,,,0.00,Wunderground v.1.15,2013-01-04 12:35:00,
2013-01-04 07:41:00,25.9,20.9,30.10,West,275,7.0,9.0,81,0.00,,,0.00,Wunderground v.1.15,2013-01-04 12:41:00,
2013-01-04 07:46:00,25.8,20.5,30.10,West,261,8.0,11.0,80,0.00,,,0.00,Wunderground v.1.15,2013-01-04 12:46:00,
2013-01-04 07:51:00,25.8,20.5,30.10,WNW,288,6.0,8.0,80,0.00,,,0.00,Wunderground v.1.15,2013-01-04 12:51:00,
2013-01-04 07:56:00,25.7,20.4,30.10,West,262,7.0,8.0,80,0.00,,,0.00,Wunderground v.1.15,2013-01-04 12:56:00,
2013-01-04 08:02:00,25.6,20.6,30.11,West,279,7.0,11.0,81,0.00,,,0.00,Wunderground v.1.15,2013-01-04 13:02:00,
2013-01-04 08:07:00,25.6,20.6,30.11,WNW,290,7.0,11.0,81,0.00,,,0.00,Wunderground v.1.15,2013-01-04 13:07:00,
2013-01-04 08:13:00,25.5,20.5,30.11,West,272,6.0,7.0,81,0.00,,,0.00,Wunderground v.1.15,2013-01-04 13:13:00,
2013-01-04 08:19:00,25.3,20.3,30.11,West,281,5.0,7.0,81,0.00,,,0.00,Wunderground v.1.15,2013-01-04 13:19:00,
2013-01-04 08:25:00,25.2,20.2,30.11,West,267,6.0,12.0,81,0.00,,,0.00,Wunderground v.1.15,2013-01-04 13:25:00,
2013-01-04 08:31:00,25.2,20.5,30.11,West,281,6.0,9.0,82,0.00,,,0.00,Wunderground v.1.15,2013-01-04 13:31:00,
2013-01-04 08:36:00,25.1,20.1,30.11,West,268,6.0,10.0,81,0.00,,,0.00,Wunderground v.1.15,2013-01-04 13:36:00,
2013-01-04 08:41:00,25.2,20.5,30.11,WSW,252,6.0,8.0,82,0.00,,,0.00,Wunderground v.1.15,2013-01-04 13:41:00,
2013-01-04 08:46:00,25.1,20.4,30.11,WSW,250,6.0,13.0,82,0.00,,,0.00,Wunderground v.1.15,2013-01-04 13:46:00,
2013-01-04 08:52:00,25.1,20.4,30.10,WSW,257,6.0,6.0,82,0.00,,,0.00,Wunderground v.1.15,2013-01-04 13:52:00,
2013-01-04 08:57:00,25.1,20.4,30.10,SW,236,6.0,7.0,82,0.00,,,0.00,Wunderground v.1.15,2013-01-04 13:57:00,
2013-01-04 09:03:00,25.2,20.5,30.10,West,269,6.0,10.0,82,0.00,,,0.00,Wunderground v.1.15,2013-01-04 14:03:00,
2013-01-04 09:09:00,25.2,20.5,30.10,West,277,6.0,11.0,82,0.00,,,0.00,Wunderground v.1.15,2013-01-04 14:09:00,
2013-01-04 09:14:00,25.2,20.2,30.11,West,281,6.0,7.0,81,0.00,,,0.00,Wunderground v.1.15,2013-01-04 14:14:00,
2013-01-04 09:19:00,25.3,20.3,30.11,West,268,6.0,7.0,81,0.00,,,0.00,Wunderground v.1.15,2013-01-04 14:19:00,
2013-01-04 09:25:00,25.3,20.3,30.11,West,267,7.0,8.0,81,0.00,,,0.00,Wunderground v.1.15,2013-01-04 14:25:00,
2013-01-04 09:31:00,25.4,20.4,30.11,West,264,7.0,7.0,81,0.00,,,0.00,Wunderground v.1.15,2013-01-04 14:31:00,
2013-01-04 09:36:00,25.4,20.4,30.11,West,265,7.0,15.0,81,0.00,,,0.00,Wunderground v.1.15,2013-01-04 14:36:00,
2013-01-04 09:42:00,25.3,20.3,30.11,West,268,8.0,8.0,81,0.00,,,0.00,Wunderground v.1.15,2013-01-04 14:42:00,
2013-01-04 09:47:00,25.3,20.6,30.11,West,269,7.0,9.0,82,0.00,,,0.00,Wunderground v.1.15,2013-01-04 14:47:00,
2013-01-04 09:54:00,25.1,20.4,30.11,WNW,297,8.0,10.0,82,0.00,,,0.00,Wunderground v.1.15,2013-01-04 14:54:00,
2013-01-04 09:59:00,24.9,20.2,30.12,West,263,9.0,11.0,82,0.00,,,0.00,Wunderground v.1.15,2013-01-04 14:59:00,
2013-01-04 10:05:00,24.8,20.1,30.12,West,280,9.0,13.0,82,0.00,,,0.00,Wunderground v.1.15,2013-01-04 15:05:00,
2013-01-04 10:10:00,24.9,20.2,30.12,West,267,8.0,8.0,82,0.00,,,0.00,Wunderground v.1.15,2013-01-04 15:10:00,
2013-01-04 10:16:00,24.8,20.1,30.12,West,261,8.0,14.0,82,0.00,,,0.00,Wunderground v.1.15,2013-01-04 15:16:00,
2013-01-04 10:22:00,24.8,20.1,30.11,West,274,8.0,9.0,82,0.00,,,0.00,Wunderground v.1.15,2013-01-04 15:22:00,
2013-01-04 10:27:00,24.9,20.2,30.11,West,276,7.0,11.0,82,0.00,,,0.00,Wunderground v.1.15,2013-01-04 15:27:00,
2013-01-04 10:33:00,24.9,20.2,30.11,West,263,8.0,15.0,82,0.00,,,0.00,Wunderground v.1.15,2013-01-04 15:33:00,
2013-01-04 10:39:00,24.9,20.2,30.12,West,281,8.0,15.0,82,0.00,,,0.00,Wunderground v.1.15,2013-01-04 15:39:00,
2013-01-04 10:44:00,25.1,20.4,30.12,WSW,255,7.0,9.0,82,0.00,,,0.00,Wunderground v.1.15,2013-01-04 15:44:00,
2013-01-04 10:50:00,25.1,20.4,30.12,NW,308,8.0,8.0,82,0.00,,,0.00,Wunderground v.1.15,2013-01-04 15:50:00,
2013-01-04 10:55:00,25.2,20.5,30.12,West,278,7.0,8.0,82,0.00,,,0.00,Wunderground v.1.15,2013-01-04 15:55:00,
2013-01-04 11:00:00,25.2,20.5,30.13,WNW,284,8.0,8.0,82,0.00,,,0.00,Wunderground v.1.15,2013-01-04 16:00:00,
2013-01-04 11:06:00,25.2,20.5,30.13,West,280,9.0,16.0,82,0.00,,,0.00,Wunderground v.1.15,2013-01-04 16:06:00,
2013-01-04 11:12:00,25.3,20.6,30.12,West,263,8.0,10.0,82,0.00,,,0.00,Wunderground v.1.15,2013-01-04 16:12:00,
2013-01-04 11:17:00,25.3,20.6,30.12,WNW,291,7.0,12.0,82,0.00,,,0.00,Wunderground v.1.15,2013-01-04 16:17:00,
2013-01-04 11:23:00,25.4,20.4,30.11,West,265,8.0,10.0,81,0.00,,,0.00,Wunderground v.1.15,2013-01-04 16:23:00,
2013-01-04 11:29:00,25.4,20.7,30.11,West,260,9.0,14.0,82,0.00,,,0.00,Wunderground v.1.15,2013-01-04 16:29:00,
2013-01-04 11:34:00,25.6,20.9,30.10,SSW,203,8.0,10.0,82,0.00,,,0.00,Wunderground v.1.15,2013-01-04 16:34:00,
2013-01-04 11:40:00,25.9,20.9,30.09,WSW,241,7.0,7.0,81,0.00,,,0.00,Wunderground v.1.15,2013-01-04 16:40:00,
2013-01-04 11:45:00,26.2,21.2,30.08,West,274,7.0,12.0,81,0.00,,,0.00,Wunderground v.1.15,2013-01-04 16:45:00,
2013-01-04 11:50:00,26.2,20.9,30.09,West,269,8.0,8.0,80,0.00,,,0.00,Wunderground v.1.15,2013-01-04 16:50:00,
2013-01-04 11:55:00,26.5,21.2,30.09,West,267,8.0,12.0,80,0.00,,,0.00,Wunderground v.1.15,2013-01-04 16:55:00,
2013-01-04 12:01:00,26.5,21.2,30.09,SW,219,7.0,10.0,80,0.00,,,0.00,Wunderground v.1.15,2013-01-04 17:01:00,
2013-01-04 12:06:00,26.6,21.3,30.09,West,269,8.0,12.0,80,0.00,,,0.00,Wunderground v.1.15,2013-01-04 17:06:00,
2013-01-04 12:11:00,26.7,21.4,30.08,WSW,251,8.0,8.0,80,0.00,,,0.00,Wunderground v.1.15,2013-01-04 17:11:00,
2013-01-04 12:17:00,26.8,21.5,30.08,WNW,298,8.0,10.0,80,0.00,,,0.00,Wunderground v.1.15,2013-01-04 17:17:00,
2013-01-04 12:24:00,27.0,21.4,30.07,West,280,8.0,11.0,79,0.00,,,0.00,Wunderground v.1.15,2013-01-04 17:24:00,
2013-01-04 12:29:00,27.2,21.5,30.07,West,268,8.0,11.0,79,0.00,,,0.00,Wunderground v.1.15,2013-01-04 17:29:00,
2013-01-04 12:34:00,27.3,21.6,30.07,West,270,8.0,15.0,79,0.00,,,0.00,Wunderground v.1.15,2013-01-04 17:34:00,
2013-01-04 12:40:00,27.5,21.5,30.06,WSW,246,8.0,8.0,78,0.00,,,0.00,Wunderground v.1.15,2013-01-04 17:40:00,
2013-01-04 12:45:00,27.7,21.7,30.06,WSW,238,7.0,10.0,78,0.00,,,0.00,Wunderground v.1.15,2013-01-04 17:45:00,
2013-01-04 12:51:00,27.9,21.9,30.05,West,267,8.0,8.0,78,0.00,,,0.00,Wunderground v.1.15,2013-01-04 17:51:00,
2013-01-04 12:56:00,28.0,22.0,30.05,WNW,284,9.0,14.0,78,0.00,,,0.00,Wunderground v.1.15,2013-01-04 17:56:00,
2013-01-04 13:02:00,28.3,22.0,30.05,West,276,7.0,9.0,77,0.00,,,0.00,Wunderground v.1.15,2013-01-04 18:02:00,
2013-01-04 13:07:00,28.5,22.2,30.05,WNW,287,7.0,12.0,77,0.00,,,0.00,Wunderground v.1.15,2013-01-04 18:07:00,
2013-01-04 13:12:00,28.8,22.5,30.05,WNW,286,7.0,7.0,77,0.00,,,0.00,Wunderground v.1.15,2013-01-04 18:12:00,
2013-01-04 13:17:00,29.0,22.4,30.04,WSW,254,6.0,13.0,76,0.00,,,0.00,Wunderground v.1.15,2013-01-04 18:17:00,
2013-01-04 13:23:00,29.1,22.5,30.04,SW,232,6.0,12.0,76,0.00,,,0.00,Wunderground v.1.15,2013-01-04 18:23:00,
2013-01-04 13:29:00,29.1,22.2,30.05,West,273,7.0,12.0,75,0.00,,,0.00,Wunderground v.1.15,2013-01-04 18:29:00,
2013-01-04 13:34:00,29.0,22.1,30.04,WSW,254,7.0,12.0,75,0.00,,,0.00,Wunderground v.1.15,2013-01-04 18:34:00,
2013-01-04 13:40:00,29.1,22.5,30.04,WSW,247,8.0,10.0,76,0.00,,,0.00,Wunderground v.1.15,2013-01-04 18:40:00,
2013-01-04 13:45:00,29.0,22.1,30.04,West,281,9.0,13.0,75,0.00,,,0.00,Wunderground v.1.15,2013-01-04 18:45:00,
2013-01-04 13:50:00,29.3,22.4,30.04,West,267,9.0,9.0,75,0.00,,,0.00,Wunderground v.1.15,2013-01-04 18:50:00,
2013-01-04 13:56:00,29.4,22.5,30.04,West,280,7.0,11.0,75,0.00,,,0.00,Wunderground v.1.15,2013-01-04 18:56:00,
2013-01-04 14:02:00,29.7,22.4,30.04,West,271,7.0,11.0,74,0.00,,,0.00,Wunderground v.1.15,2013-01-04 19:02:00,
2013-01-04 14:07:00,29.8,22.5,30.04,West,260,7.0,11.0,74,0.00,,,0.00,Wunderground v.1.15,2013-01-04 19:07:00,
2013-01-04 14:13:00,29.8,22.5,30.04,West,274,6.0,11.0,74,0.00,,,0.00,Wunderground v.1.15,2013-01-04 19:13:00,
2013-01-04 14:19:00,29.6,22.3,30.04,WSW,256,8.0,12.0,74,0.00,,,0.00,Wunderground v.1.15,2013-01-04 19:19:00,
2013-01-04 14:24:00,29.6,22.3,30.04,West,268,9.0,10.0,74,0.00,,,0.00,Wunderground v.1.15,2013-01-04 19:24:00,
2013-01-04 14:30:00,29.7,22.4,30.04,West,280,8.0,8.0,74,0.00,,,0.00,Wunderground v.1.15,2013-01-04 19:30:00,
2013-01-04 14:35:00,29.6,22.3,30.04,WNW,297,9.0,13.0,74,0.00,,,0.00,Wunderground v.1.15,2013-01-04 19:35:00,
2013-01-04 14:41:00,29.8,22.5,30.04,WNW,288,9.0,10.0,74,0.00,,,0.00,Wunderground v.1.15,2013-01-04 19:41:00,
2013-01-04 14:46:00,29.8,22.5,30.04,West,275,9.0,14.0,74,0.00,,,0.00,Wunderground v.1.15,2013-01-04 19:46:00,
2013-01-04 14:52:00,29.8,22.5,30.04,West,261,9.0,9.0,74,0.00,,,0.00,Wunderground v.1.15,2013-01-04 19:52:00,
2013-01-04 14:57:00,29.8,22.5,30.04,SW,228,8.0,12.0,74,0.00,,,0.00,Wunderground v.1.15,2013-01-04 19:57:00,
2013-01-04 15:03:00,29.9,22.6,30.04,SW,225,6.0,15.0,74,0.00,,,0.00,Wunderground v.1.15,2013-01-04 20:03:00,
2013-01-04 15:08:00,29.7,22.4,30.04,WSW,246,7.0,15.0,74,0.00,,,0.00,Wunderground v.1.15,2013-01-04 20:08:00,
2013-01-04 15:13:00,29.7,22.4,30.04,West,278,8.0,8.0,74,0.00,,,0.00,Wunderground v.1.15,2013-01-04 20:13:00,
2013-01-04 15:19:00,29.7,22.4,30.05,West,281,7.0,8.0,74,0.00,,,0.00,Wunderground v.1.15,2013-01-04 20:19:00,
2013-01-04 15:24:00,29.6,22.3,30.05,SW,215,6.0,9.0,74,0.00,,,0.00,Wunderground v.1.15,2013-01-04 20:24:00,
2013-01-04 15:30:00,29.6,22.3,30.05,WNW,289,8.0,8.0,74,0.00,,,0.00,Wunderground v.1.15,2013-01-04 20:30:00,
2013-01-04 15:35:00,29.6,22.3,30.05,WNW,288,7.0,8.0,74,0.00,,,0.00,Wunderground v.1.15,2013-01-04 20:35:00,
2013-01-04 15:40:00,29.7,22.4,30.05,West,260,6.0,10.0,74,0.00,,,0.00,Wunderground v.1.15,2013-01-04 20:40:00,
2013-01-04 15:45:00,29.4,22.1,30.05,West,267,8.0,12.0,74,0.00,,,0.00,Wunderground v.1.15,2013-01-04 20:45:00,
2013-01-04 15:51:00,29.3,22.0,30.06,West,267,8.0,13.0,74,0.00,,,0.00,Wunderground v.1.15,2013-01-04 20:51:00,
2013-01-04 15:56:00,29.2,21.9,30.06,WNW,284,9.0,13.0,74,0.00,,,0.00,Wunderground v.1.15,2013-01-04 20:56:00,
2013-01-04 16:02:00,29.2,21.9,30.07,West,267,8.0,9.0,74,0.00,,,0.00,Wunderground v.1.15,2013-01-04 21:02:00,
2013-01-04 16:07:00,29.2,21.9,30.06,WSW,255,8.0,13.0,74,0.00,,,0.00,Wunderground v.1.15,2013-01-04 21:07:00,
2013-01-04 16:12:00,29.2,22.3,30.07,WNW,285,7.0,9.0,75,0.00,,,0.00,Wunderground v.1.15,2013-01-04 21:12:00,
2013-01-04 16:18:00,29.2,22.3,30.07,West,269,6.0,11.0,75,0.00,,,0.00,Wunderground v.1.15,2013-01-04 21:18:00,
2013-01-04 16:23:00,29.1,22.2,30.07,WSW,252,8.0,10.0,75,0.00,,,0.00,Wunderground v.1.15,2013-01-04 21:23:00,
2013-01-04 16:29:00,29.1,22.2,30.07,West,273,8.0,13.0,75,0.00,,,0.00,Wunderground v.1.15,2013-01-04 21:29:00,
2013-01-04 16:34:00,29.0,22.1,30.07,WSW,254,7.0,8.0,75,0.00,,,0.00,Wunderground v.1.15,2013-01-04 21:34:00,
2013-01-04 16:40:00,28.9,22.0,30.07,WSW,249,7.0,7.0,75,0.00,,,0.00,Wunderground v.1.15,2013-01-04 21:40:00,
2013-01-04 16:45:00,28.9,22.0,30.08,WSW,254,5.0,8.0,75,0.00,,,0.00,Wunderground v.1.15,2013-01-04 21:45:00,
2013-01-04 16:51:00,28.8,22.2,30.08,WNW,284,5.0,5.0,76,0.00,,,0.00,Wunderground v.1.15,2013-01-04 21:51:00,
2013-01-04 16:56:00,28.8,22.2,30.09,West,281,4.0,5.0,76,0.00,,,0.00,Wunderground v.1.15,2013-01-04 21:56:00,
2013-01-04 17:01:00,28.7,22.1,30.09,West,276,4.0,9.0,76,0.00,,,0.00,Wunderground v.1.15,2013-01-04 22:01:00,
2013-01-04 17:06:00,28.5,21.9,30.09,West,279,5.0,9.0,76,0.00,,,0.00,Wunderground v.1.15,2013-01-04 22:06:00,
2013-01-04 17:12:00,28.3,21.7,30.09,West,271,6.0,12.0,76,0.00,,,0.00,Wunderground v.1.15,2013-01-04 22:12:00,
2013-01-04 17:17:00,28.2,21.6,30.09,West,279,6.0,12.0,76,0.00,,,0.00,Wunderground v.1.15,2013-01-04 22:17:00,
2013-01-04 17:23:00,28.1,21.2,30.09,West,276,6.0,10.0,75,0.00,,,0.00,Wunderground v.1.15,2013-01-04 22:23:00,
2013-01-04 17:29:00,27.9,21.3,30.09,WNW,290,5.0,10.0,76,0.00,,,0.00,Wunderground v.1.15,2013-01-04 22:29:00,
2013-01-04 17:34:00,27.9,21.3,30.10,West,278,5.0,8.0,76,0.00,,,0.00,Wunderground v.1.15,2013-01-04 22:34:00,
2013-01-04 17:40:00,27.8,21.2,30.10,West,265,6.0,6.0,76,0.00,,,0.00,Wunderground v.1.15,2013-01-04 22:40:00,
2013-01-04 17:45:00,27.8,21.2,30.10,West,269,6.0,7.0,76,0.00,,,0.00,Wunderground v.1.15,2013-01-04 22:45:00,
2013-01-04 17:51:00,27.7,21.1,30.10,West,272,6.0,7.0,76,0.00,,,0.00,Wunderground v.1.15,2013-01-04 22:51:00,
2013-01-04 17:56:00,27.6,21.0,30.11,West,277,5.0,7.0,76,0.00,,,0.00,Wunderground v.1.15,2013-01-04 22:56:00,
2013-01-04 18:02:00,27.5,20.9,30.11,WNW,283,5.0,6.0,76,0.00,,,0.00,Wunderground v.1.15,2013-01-04 23:02:00,
2013-01-04 18:09:00,27.3,20.7,30.11,West,274,4.0,8.0,76,0.00,,,0.00,Wunderground v.1.15,2013-01-04 23:09:00,
2013-01-04 18:14:00,27.1,20.5,30.11,West,271,3.0,4.0,76,0.00,,,0.00,Wunderground v.1.15,2013-01-04 23:14:00,
2013-01-04 18:20:00,27.0,20.7,30.11,WNW,292,4.0,4.0,77,0.00,,,0.00,Wunderground v.1.15,2013-01-04 23:20:00,
2013-01-04 18:25:00,26.9,20.7,30.12,West,271,4.0,6.0,77,0.00,,,0.00,Wunderground v.1.15,2013-01-04 23:25:00,
2013-01-04 18:30:00,26.9,20.7,30.12,West,277,5.0,5.0,77,0.00,,,0.00,Wunderground v.1.15,2013-01-04 23:30:00,
2013-01-04 18:35:00,26.9,20.7,30.12,West,274,5.0,10.0,77,0.00,,,0.00,Wunderground v.1.15,2013-01-04 23:35:00,
2013-01-04 18:41:00,26.9,20.7,30.12,West,260,5.0,5.0,77,0.00,,,0.00,Wunderground v.1.15,2013-01-04 23:41:00,
2013-01-04 18:47:00,26.7,20.5,30.12,West,280,4.0,10.0,77,0.00,,,0.00,Wunderground v.1.15,2013-01-04 23:47:00,
2013-01-04 18:53:00,26.7,20.5,30.12,West,276,5.0,6.0,77,0.00,,,0.00,Wunderground v.1.15,2013-01-04 23:53:00,
2013-01-04 18:59:00,26.7,20.5,30.12,West,277,4.0,6.0,77,0.00,,,0.00,Wunderground v.1.15,2013-01-04 23:59:00,
2013-01-04 19:04:00,26.8,20.6,30.13,WNW,284,5.0,11.0,77,0.00,,,0.00,Wunderground v.1.15,2013-01-05 00:04:00,
2013-01-04 19:09:00,26.8,20.6,30.13,WNW,286,6.0,11.0,77,0.00,,,0.00,Wunderground v.1.15,2013-01-05 00:09:00,
2013-01-04 19:15:00,26.7,20.5,30.13,West,275,6.0,7.0,77,0.00,,,0.00,Wunderground v.1.15,2013-01-05 00:15:00,
2013-01-04 19:21:00,26.7,20.5,30.13,West,278,5.0,8.0,77,0.00,,,0.00,Wunderground v.1.15,2013-01-05 00:21:00,
2013-01-04 19:26:00,26.6,20.4,30.13,WNW,284,5.0,9.0,77,0.00,,,0.00,Wunderground v.1.15,2013-01-05 00:26:00,
2013-01-04 19:32:00,26.6,20.7,30.13,WSW,257,5.0,7.0,78,0.00,,,0.00,Wunderground v.1.15,2013-01-05 00:32:00,
2013-01-04 19:37:00,26.7,20.8,30.14,West,263,6.0,9.0,78,0.00,,,0.00,Wunderground v.1.15,2013-01-05 00:37:00,
2013-01-04 19:43:00,26.7,20.8,30.14,West,281,6.0,10.0,78,0.00,,,0.00,Wunderground v.1.15,2013-01-05 00:43:00,
2013-01-04 19:49:00,26.7,20.8,30.14,West,272,6.0,10.0,78,0.00,,,0.00,Wunderground v.1.15,2013-01-05 00:49:00,
2013-01-04 19:54:00,26.6,20.7,30.15,WNW,284,5.0,5.0,78,0.00,,,0.00,Wunderground v.1.15,2013-01-05 00:54:00,
2013-01-04 20:00:00,26.6,20.7,30.14,WNW,282,5.0,5.0,78,0.00,,,0.00,Wunderground v.1.15,2013-01-05 01:00:00,
2013-01-04 20:06:00,26.5,20.6,30.15,West,274,4.0,6.0,78,0.00,,,0.00,Wunderground v.1.15,2013-01-05 01:06:00,
2013-01-04 20:12:00,26.4,20.5,30.15,West,280,4.0,4.0,78,0.00,,,0.00,Wunderground v.1.15,2013-01-05 01:12:00,
2013-01-04 20:17:00,26.4,20.5,30.15,WSW,257,5.0,6.0,78,0.00,,,0.00,Wunderground v.1.15,2013-01-05 01:17:00,
2013-01-04 20:23:00,26.4,20.5,30.16,West,281,6.0,8.0,78,0.00,,,0.00,Wunderground v.1.15,2013-01-05 01:23:00,
2013-01-04 20:29:00,26.3,20.4,30.16,WNW,288,6.0,12.0,78,0.00,,,0.00,Wunderground v.1.15,2013-01-05 01:29:00,
2013-01-04 20:34:00,26.3,20.4,30.16,WNW,290,7.0,13.0,78,0.00,,,0.00,Wunderground v.1.15,2013-01-05 01:34:00,
2013-01-04 20:40:00,26.2,20.3,30.16,WNW,287,6.0,6.0,78,0.00,,,0.00,Wunderground v.1.15,2013-01-05 01:40:00,
2013-01-04 20:46:00,26.2,20.3,30.16,West,261,6.0,13.0,78,0.00,,,0.00,Wunderground v.1.15,2013-01-05 01:46:00,
2013-01-04 20:52:00,26.2,20.6,30.16,WNW,290,6.0,6.0,79,0.00,,,0.00,Wunderground v.1.15,2013-01-05 01:52:00,
2013-01-04 20:57:00,26.1,20.5,30.17,West,279,5.0,9.0,79,0.00,,,0.00,Wunderground v.1.15,2013-01-05 01:57:00,
2013-01-04 21:03:00,26.1,20.5,30.17,West,267,5.0,10.0,79,0.00,,,0.00,Wunderground v.1.15,2013-01-05 02:03:00,
2013-01-04 21:09:00,26.1,20.5,30.17,West,273,6.0,10.0,79,0.00,,,0.00,Wunderground v.1.15,2013-01-05 02:09:00,
2013-01-04 21:15:00,26.0,20.4,30.17,WNW,283,6.0,7.0,79,0.00,,,0.00,Wunderground v.1.15,2013-01-05 02:15:00,
2013-01-04 21:21:00,26.0,20.4,30.17,West,281,6.0,13.0,79,0.00,,,0.00,Wunderground v.1.15,2013-01-05 02:21:00,
2013-01-04 21:26:00,25.9,20.3,30.17,West,281,6.0,13.0,79,0.00,,,0.00,Wunderground v.1.15,2013-01-05 02:26:00,
2013-01-04 21:32:00,25.8,20.2,30.17,West,273,6.0,6.0,79,0.00,,,0.00,Wunderground v.1.15,2013-01-05 02:32:00,
2013-01-04 21:37:00,25.6,20.3,30.17,West,277,6.0,7.0,80,0.00,,,0.00,Wunderground v.1.15,2013-01-05 02:37:00,
2013-01-04 21:43:00,25.5,20.2,30.18,WNW,284,5.0,6.0,80,0.00,,,0.00,Wunderground v.1.15,2013-01-05 02:43:00,
2013-01-04 21:49:00,25.4,20.1,30.18,West,279,5.0,6.0,80,0.00,,,0.00,Wunderground v.1.15,2013-01-05 02:49:00,
2013-01-04 21:54:00,25.3,20.0,30.18,West,276,5.0,6.0,80,0.00,,,0.00,Wunderground v.1.15,2013-01-05 02:54:00,
2013-01-04 22:00:00,25.1,20.1,30.19,NW,304,4.0,4.0,81,0.00,,,0.00,Wunderground v.1.15,2013-01-05 03:00:00,
2013-01-04 22:06:00,25.1,20.1,30.19,WNW,289,4.0,6.0,81,0.00,,,0.00,Wunderground v.1.15,2013-01-05 03:06:00,
2013-01-04 22:12:00,25.0,20.0,30.19,WNW,291,4.0,4.0,81,0.00,,,0.00,Wunderground v.1.15,2013-01-05 03:12:00,
2013-01-04 22:17:00,24.9,19.9,30.19,WNW,289,4.0,6.0,81,0.00,,,0.00,Wunderground v.1.15,2013-01-05 03:17:00,
2013-01-04 22:22:00,24.8,20.1,30.19,WNW,295,3.0,5.0,82,0.00,,,0.00,Wunderground v.1.15,2013-01-05 03:22:00,
2013-01-04 22:27:00,24.8,20.1,30.20,WNW,294,3.0,5.0,82,0.00,,,0.00,Wunderground v.1.15,2013-01-05 03:27:00,
2013-01-04 22:33:00,24.7,20.0,30.20,WNW,282,3.0,3.0,82,0.00,,,0.00,Wunderground v.1.15,2013-01-05 03:33:00,
2013-01-04 22:39:00,24.6,19.9,30.20,West,276,4.0,5.0,82,0.00,,,0.00,Wunderground v.1.15,2013-01-05 03:39:00,
2013-01-04 22:44:00,24.5,19.8,30.20,WNW,288,3.0,4.0,82,0.00,,,0.00,Wunderground v.1.15,2013-01-05 03:44:00,
2013-01-04 22:50:00,24.5,20.1,30.20,WNW,293,3.0,3.0,83,0.00,,,0.00,Wunderground v.1.15,2013-01-05 03:50:00,
2013-01-04 22:55:00,24.5,20.1,30.20,WNW,292,3.0,5.0,83,0.00,,,0.00,Wunderground v.1.15,2013-01-05 03:55:00,
2013-01-04 23:01:00,24.5,20.1,30.21,WNW,292,3.0,3.0,83,0.00,,,0.00,Wunderground v.1.15,2013-01-05 04:01:00,
2013-01-04 23:06:00,24.5,20.1,30.21,WNW,288,3.0,6.0,83,0.00,,,0.00,Wunderground v.1.15,2013-01-05 04:06:00,
2013-01-04 23:11:00,24.5,20.1,30.21,WNW,288,3.0,3.0,83,0.00,,,0.00,Wunderground v.1.15,2013-01-05 04:11:00,
2013-01-04 23:16:00,24.5,20.4,30.22,WNW,290,3.0,5.0,84,0.00,,,0.00,Wunderground v.1.15,2013-01-05 04:16:00,
2013-01-04 23:22:00,24.4,20.3,30.21,WNW,283,3.0,5.0,84,0.00,,,0.00,Wunderground v.1.15,2013-01-05 04:22:00,
2013-01-04 23:27:00,24.4,20.3,30.22,WNW,283,3.0,6.0,84,0.00,,,0.00,Wunderground v.1.15,2013-01-05 04:27:00,
2013-01-04 23:33:00,24.3,20.2,30.22,West,281,3.0,5.0,84,0.00,,,0.00,Wunderground v.1.15,2013-01-05 04:33:00,
2013-01-04 23:39:00,24.3,20.2,30.22,WNW,282,3.0,5.0,84,0.00,,,0.00,Wunderground v.1.15,2013-01-05 04:39:00,
2013-01-04 23:44:00,24.4,20.3,30.22,West,280,3.0,6.0,84,0.00,,,0.00,Wunderground v.1.15,2013-01-05 04:44:00,
2013-01-04 23:50:00,24.3,20.2,30.22,West,280,3.0,3.0,84,0.00,,,0.00,Wunderground v.1.15,2013-01-05 04:50:00,
2013-01-04 23:56:00,24.3,20.2,30.22,West,277,2.0,3.0,84,0.00,,,0.00,Wunderground v.1.15,2013-01-05 04:56:00,